Regional Weather Roundup
Issued by NWS

Home | Current Version | Previous Version | Graphics & Text | Print | Product List | Glossary On
Versions: 1 2 3 4 5 6 7 8 9 10 11 12 13 14 15 16 17 18 19 20 21 22 23 24 25 26 27 28 29 30 31 32 33 34 35 36 37 38 39 40 41 42 43 44 45 46 47 48 49 50
294
ASUS43 KOAX 181310
RWRNE

WEATHER ROUNDUP FOR NEBRASKA
NATIONAL WEATHER SERVICE OMAHA NE
700 AM CST WED JAN 18 2017

NOTES: SATELLITE DATA IS BEING USED TO AUGMENT CLOUD COVER ABOVE
       12000 FEET.
       "FAIR" INDICATES FEW OR NO CLOUDS BELOW 12,000 FEET WITH NO
       SIGNIFICANT WEATHER AND/OR OBSTRUCTIONS TO VISIBILITY.

  * THESE STATIONS DO NOT REPORT WEATHER SUCH AS RAIN...SNOW OR FOG.

NEZ001>004-019>022-054>056-181400-
NEBRASKA PANHANDLE

CITY           SKY/WX    TMP DP  RH WIND       PRES   REMARKS
SCOTTSBLUFF    CLOUDY    25  14  63 NW12      29.91F WCI  14
ALLIANCE       CLOUDY    18  12  77 W3        29.88F
CHADRON        CLOUDY    22  14  71 SW9       29.89F WCI  12
KIMBALL        CLOUDY    23  18  78 CALM      29.94S
SIDNEY         CLOUDY    23  17  78 W10       29.93S WCI  12
$$

NEZ057>060-069>072-079>082-181400-
SOUTHWEST NEBRASKA

CITY           SKY/WX    TMP DP  RH WIND       PRES   REMARKS
NORTH PLATTE   CLOUDY    19  18  95 CALM      29.94F FOG
IMPERIAL       CLOUDY    22  19  89 CALM      29.95S
LEXINGTON      CLOUDY    27  25  93 CALM      29.96S
MCCOOK         CLOUDY    23  22  96 S6        29.96S WCI  16
OGALLALA       CLOUDY    18  16  91 W6        29.94R WCI  10
$$

NEZ005>010-023>029-035>040-094-181400-
NORTH CENTRAL NEBRASKA

CITY           SKY/WX    TMP DP  RH WIND       PRES   REMARKS
VALENTINE      CLOUDY    19  15  84 SW9       29.86F WCI   8
AINSWORTH      CLOUDY    27  22  83 SW9       29.87F WCI  17
BROKEN BOW     CLOUDY    27  25  92 SW5       29.93S WCI  22
O`NEILL        CLOUDY    29  28  94 SW7       29.90S WCI  22
ORD            CLOUDY    27  23  85 CALM      29.93S
THEDFORD       CLOUDY    26  21  83 SW6       29.91F WCI  19
$$

NEZ041-046>049-061>064-073>077-083>087-181400-
SOUTH CENTRAL NEBRASKA

CITY           SKY/WX    TMP DP  RH WIND       PRES   REMARKS
GRAND ISLAND   CLOUDY    30  28  92 S6        29.99S WCI  24
AURORA         CLOUDY    32  29  90 SW8       30.00S WCI  25
HASTINGS       CLOUDY    30  27  88 S3        30.01S
HEBRON         CLOUDY    30  28  92 CALM      30.04S
HOLDREGE       CLOUDY    31  28  88 SW6       29.98S WCI  25
KEARNEY *      CLOUDY    27  23  86 SW5       29.98F WCI  21
YORK           CLOUDY    32  28  86 SW8       30.01S WCI  25
$$

NEZ011>018-030>034-042>045-181400-
NORTHEAST NEBRASKA

CITY           SKY/WX    TMP DP  RH WIND       PRES   REMARKS
NORFOLK        CLOUDY    30  25  81 CALM      29.95R
ALBION         CLOUDY    30  26  85 S3        29.95F
BLAIR          CLEAR     30  28  91 CALM      30.01S
FREMONT        CLOUDY    32  29  90 S5        30.01S WCI  27
TEKAMAH        CLOUDY    28  25  88 SE7       30.01S WCI  21
WAYNE          CLOUDY    31  28  88 S10       29.95R WCI  22
$$

NEZ050>053-065>068-078-088>093-181400-
SOUTHEAST NEBRASKA

CITY           SKY/WX    TMP DP  RH WIND       PRES   REMARKS
LINCOLN        CLOUDY    28  25  88 S7        30.05S WCI  21
OMAHA EPPLEY   CLEAR     26  22  84 SE12      30.04F WCI  16
BEATRICE       CLOUDY    27  26  96 SE3       30.06S
FALLS CITY     CLOUDY    24  22  91 SE6       30.10R WCI  17
NEBRASKA CITY  CLOUDY    26  26  99 S8        30.06S WCI  18
PLATTSMOUTH    CLOUDY    27  24  87 S7        30.05S WCI  19
$$

NEZ044-045-051>053-067-181400-
OMAHA AREA

CITY           SKY/WX    TMP DP  RH WIND       PRES   REMARKS
OMAHA EPPLEY   CLEAR     26  22  84 SE12      30.04F WCI  16
BLAIR          CLEAR     30  28  91 CALM      30.01S
FREMONT        CLOUDY    32  29  90 S5        30.01S WCI  27
MILLARD        CLEAR     27  26  94 SE3       30.04S
PLATTSMOUTH    CLOUDY    27  24  87 S7        30.05S WCI  19
WAHOO          FAIR      29  27  91 S6        30.02S WCI  23
$$




USA.gov is the U.S. government's official web portal to all federal, state and local government web resources and services.